{"data":{"norad_id":54020,"intl_designator":"2022-126A","name":"CENTISPACE-1 S5","alt_names":[],"object_type":"PAYLOAD","status":"ACTIVE","operator":null,"country":"PRC","launch_date":"2022-10-07","launch_site_code":"SEAL","launch_vehicle":null,"mission":null,"orbit_class":"UNKNOWN","rcs_meters":null,"size_class":null,"mass_kg":null,"dimensions":null,"purposes":[],"wikipedia_slug":null,"has_3d_model":false,"image_url":null,"decayed_at":null,"tle_current":{"epoch":"2026-05-24T23:45:50.402016Z","epoch_age_seconds":90052,"freshness":"FRESH","line1":"1 54020U 22126A   26144.99016669  .00000645  00000+0  16154-3 0  9991","line2":"2 54020  54.9995 305.7840 0013386  28.1592 332.0123 14.62964982193647","mean_motion":14.62964982,"eccentricity":0.0013386,"inclination_deg":54.9995,"raan_deg":305.784,"arg_perigee_deg":28.1592,"mean_anomaly_deg":332.0123,"bstar":0.00016154,"rev_number":19364,"period_min":98.430243903131,"perigee_km":674.16364064746,"apogee_km":693.06936712806,"semimajor_km":7061.7535038878,"source":"CELESTRAK","updated_at":"2026-05-25T13:37:58.520205Z"}}}